Carlyle Lake Weather Center

Moon Phase Calendar



Carlyle Lake Water Level
Online Cameras

 


      

Current Conditions in Carlyle
12/9/2022 12:27:00 PM

56°F
Feels Like 55
Clouds
Humidity
79%
Pressure
30.06"
Wind
11.6 mph (W)
Dew Point
50°F
UV Index
2/10 (Low)
Visibility
6 mi

Hourly Forecast

Date & Time Fri, Dec 9
12:00 PM
Fri, Dec 9
1:00 PM
Fri, Dec 9
2:00 PM
Fri, Dec 9
3:00 PM
Fri, Dec 9
4:00 PM
Fri, Dec 9
5:00 PM
Fri, Dec 9
6:00 PM
Fri, Dec 9
7:00 PM
Fri, Dec 9
8:00 PM
Fri, Dec 9
9:00 PM
Fri, Dec 9
10:00 PM
Fri, Dec 9
11:00 PM
Sat, Dec 10
12:00 AM
Sat, Dec 10
1:00 AM
Sat, Dec 10
2:00 AM
Sat, Dec 10
3:00 AM
Sat, Dec 10
4:00 AM
Sat, Dec 10
5:00 AM
Sat, Dec 10
6:00 AM
Sat, Dec 10
7:00 AM
Sat, Dec 10
8:00 AM
Sat, Dec 10
9:00 AM
Sat, Dec 10
10:00 AM
Sat, Dec 10
11:00 AM
Sat, Dec 10
12:00 PM
Sat, Dec 10
1:00 PM
Sat, Dec 10
2:00 PM
Sat, Dec 10
3:00 PM
Sat, Dec 10
4:00 PM
Sat, Dec 10
5:00 PM
Sat, Dec 10
6:00 PM
Sat, Dec 10
7:00 PM
Sat, Dec 10
8:00 PM
Sat, Dec 10
9:00 PM
Sat, Dec 10
10:00 PM
Sat, Dec 10
11:00 PM
Sun, Dec 11
12:00 AM
Sun, Dec 11
1:00 AM
Sun, Dec 11
2:00 AM
Sun, Dec 11
3:00 AM
Sun, Dec 11
4:00 AM
Sun, Dec 11
5:00 AM
Sun, Dec 11
6:00 AM
Sun, Dec 11
7:00 AM
Sun, Dec 11
8:00 AM
Sun, Dec 11
9:00 AM
Sun, Dec 11
10:00 AM
Sun, Dec 11
11:00 AM
Condition
Clouds

Clouds

Clouds

Clouds

Clouds

Clear

Clouds

Clouds

Clouds

Clouds

Clouds

Clouds

Clouds

Clouds

Clouds

Clouds

Clouds

Clouds

Clouds

Clouds

Clouds

Rain

Rain

Clouds

Clouds

Clouds

Clouds

Clouds

Clouds

Clouds

Clouds

Clouds

Clouds

Clouds

Clouds

Clouds

Clouds

Clouds

Clouds

Clouds

Clouds

Clouds

Clouds

Clouds

Clouds

Clouds

Clouds

Clouds
Temperature 56°F56°F56°F55°F52°F46°F44°F43°F42°F41°F41°F40°F39°F39°F39°F38°F37°F38°F38°F38°F40°F41°F41°F43°F44°F44°F44°F44°F44°F44°F43°F42°F42°F41°F41°F40°F40°F39°F39°F39°F38°F38°F38°F37°F38°F42°F46°F48°F
Feels Like 55°F55°F54°F53°F49°F42°F40°F39°F38°F38°F37°F37°F36°F36°F37°F35°F37°F38°F35°F36°F40°F38°F38°F40°F41°F42°F43°F44°F42°F42°F43°F42°F42°F41°F41°F38°F38°F37°F36°F35°F34°F35°F34°F33°F35°F39°F43°F46°F
Cloudiness 79%63%49%35%21%9%12%73%64%76%82%85%77%65%81%63%62%70%75%100%100%100%100%100%100%100%100%100%100%100%100%100%100%100%100%100%100%89%95%96%97%98%98%100%100%67%50%40%
Visibility 6 mi6 mi6 mi6 mi6 mi6 mi6 mi6 mi6 mi6 mi6 mi6 mi6 mi6 mi6 mi6 mi6 mi6 mi6 mi6 mi6 mi6 mi6 mi6 mi6 mi6 mi6 mi6 mi6 mi6 mi6 mi6 mi6 mi6 mi6 mi6 mi6 mi6 mi6 mi6 mi6 mi6 mi6 mi6 mi6 mi6 mi6 mi6 mi
Precipitation 0%0%0%0%0%0%0%0%0%0%0%0%0%0%0%0%0%0%0%0%14%35%50%50%34%0%0%0%0%0%0%0%0%0%0%0%0%0%0%0%0%0%0%0%0%0%0%0%
Humidity 79%72%65%61%61%67%71%73%76%77%79%81%83%85%84%86%87%86%84%84%79%81%84%81%79%79%79%82%83%84%87%89%89%90%91%91%92%93%93%92%92%93%93%93%92%83%74%67%
Dew Point 50°F47°F44°F42°F39°F36°F35°F35°F35°F35°F35°F35°F34°F34°F34°F34°F34°F34°F34°F34°F34°F35°F37°F37°F38°F38°F38°F39°F39°F39°F39°F39°F39°F38°F38°F38°F38°F37°F37°F36°F36°F36°F36°F35°F36°F37°F38°F38°F
Pressure 30.06"30.06"30.06"30.06"30.09"30.12"30.15"30.15"30.18"30.18"30.18"30.18"30.18"30.18"30.18"30.15"30.18"30.18"30.21"30.21"30.21"30.21"30.21"30.18"30.18"30.15"30.15"30.15"30.15"30.15"30.15"30.18"30.18"30.18"30.18"30.18"30.18"30.18"30.18"30.18"30.18"30.18"30.21"30.21"30.24"30.21"30.21"30.21"
Wind Speed 11.6 mph14.2 mph14.1 mph11.6 mph10 mph7.4 mph6.9 mph6.8 mph6.1 mph5.5 mph5.1 mph4.5 mph3.9 mph3.4 mph3.1 mph3.4 mph2.9 mph2.8 mph4.6 mph3.7 mph2.5 mph4 mph5.4 mph4.2 mph5 mph4.6 mph3 mph2.5 mph3.5 mph3.4 mph2 mph1.7 mph1.6 mph2 mph1.4 mph3.4 mph3.4 mph3.7 mph4.8 mph4.7 mph5.4 mph4.4 mph5.4 mph5.1 mph4.6 mph5 mph5.1 mph5.1 mph
Wind
Direction
259°
W
268°
W
273°
W
285°
WNW
294°
WNW
298°
WNW
305°
NW
314°
NW
322°
NW
319°
NW
316°
NW
330°
NNW
324°
NW
327°
NNW
332°
NNW
16°
NNE
344°
NNW
299°
WNW
270°
W
279°
W
240°
WSW
236°
SW
193°
SSW
206°
SSW
283°
WNW
276°
W
268°
W
236°
SW
224°
SW
216°
SW
195°
SSW
260°
W
250°
WSW
269°
W
301°
WNW
251°
WSW
294°
WNW
318°
NW
331°
NNW
352°
N
355°
N

N
15°
NNE
19°
NNE
23°
NNE
27°
NNE
27°
NNE
26°
NNE

Daily Forecast

Date High Low Precip. Humidity
Today
Dec 9

Rain
56 °F
40 °F
91%
77%
Saturday
Dec 10

Rain
44 °F
37 °F
50%
81%
Sunday
Dec 11

Clouds
52 °F
37 °F
0%
67%
Monday
Dec 12

Clouds
49 °F
35 °F
0%
56%
Tuesday
Dec 13

Rain
50 °F
35 °F
57%
73%
Wednesday
Dec 14

Rain
59 °F
46 °F
100%
74%
Thursday
Dec 15

Clouds
40 °F
33 °F
20%
57%
Friday
Dec 16

Snow
37 °F
34 °F
47%
83%
Saturday
Dec 17

Clouds
34 °F
26 °F
0%
60%
Sunday
Dec 18

Clouds
36 °F
23 °F
0%
51%
Monday
Dec 19

Snow
42 °F
32 °F
100%
93%
Tuesday
Dec 20

Clouds
41 °F
25 °F
0%
64%
Wednesday
Dec 21

Clouds
29 °F
22 °F
0%
50%
Thursday
Dec 22

Clouds
28 °F
21 °F
5%
50%
Friday
Dec 23

Clear
37 °F
19 °F
0%
48%
Saturday
Dec 24

Clouds
40 °F
26 °F
0%
50%

Temperature 8-14 Day Outlook



Precipitation 8-14 Day Outlook




Quick Links
Carlyle Lake News
Carlyle Lake Photos
Carlyle Lake Videos




About Us
Contact Us
Site Map
Search Site
Advertise With Us
   
Carlyle.USLakes.info
THE CARLYLE LAKE WEBSITE

Copyright 2022, Lakes Online
Privacy    |    Legal